Time,TemperatureF,DewpointF,PressureIn,WindDirection,WindDirectionDegrees,WindSpeedMPH,WindSpeedGustMPH,Humidity,HourlyPrecipIn,Conditions,Clouds,dailyrainin,SoftwareType,DateUTC
2013-01-24 00:03:00,17.0,16.0,-100.00,South,170,2.0,5.0,95,0.00,,,-99.99,,2013-01-24 05:03:00,
2013-01-24 00:12:00,18.0,17.0,-100.00,SSE,165,4.0,5.0,95,0.00,,,-99.99,,2013-01-24 05:12:00,
2013-01-24 00:22:00,18.0,17.0,-100.00,South,180,3.0,6.0,95,0.00,,,-99.99,,2013-01-24 05:22:00,
2013-01-24 00:33:00,18.0,17.0,-100.00,South,175,2.0,5.0,95,0.00,,,-99.99,,2013-01-24 05:33:00,
2013-01-24 00:42:00,18.0,17.0,-100.00,South,175,2.0,5.0,95,0.00,,,-99.99,,2013-01-24 05:42:00,
2013-01-24 00:52:00,18.0,17.0,-100.00,South,180,2.0,6.0,95,0.00,,,-99.99,,2013-01-24 05:52:00,
2013-01-24 01:03:00,18.0,17.0,-100.00,South,185,4.0,6.0,95,0.00,,,-99.99,,2013-01-24 06:03:00,
2013-01-24 01:12:00,19.0,17.0,-100.00,SSW,205,4.0,7.0,95,0.00,,,-99.99,,2013-01-24 06:12:00,
2013-01-24 01:22:00,19.0,18.0,-100.00,SSW,210,4.0,6.0,96,2.24,,,-99.99,,2013-01-24 06:22:00,
2013-01-24 01:32:00,19.0,18.0,-100.00,SSW,205,3.0,6.0,96,3.39,,,-99.99,,2013-01-24 06:32:00,
2013-01-24 01:42:00,19.0,18.0,-100.00,SSW,210,2.0,5.0,96,2.24,,,-99.99,,2013-01-24 06:42:00,
2013-01-24 01:52:00,19.0,19.0,-100.00,SW,215,4.0,7.0,96,0.55,,,-99.99,,2013-01-24 06:52:00,
2013-01-24 02:03:00,20.0,19.0,-100.00,SW,220,4.0,6.0,97,0.00,,,-99.99,,2013-01-24 07:03:00,
2013-01-24 02:12:00,20.0,19.0,-100.00,West,265,6.0,10.0,97,0.55,,,-99.99,,2013-01-24 07:12:00,
2013-01-24 02:23:00,20.0,20.0,-100.00,WNW,285,4.0,14.0,97,6.77,,,-99.99,,2013-01-24 07:23:00,
2013-01-24 02:33:00,21.0,20.0,-100.00,WNW,290,7.0,14.0,98,19.25,,,-99.99,,2013-01-24 07:33:00,
2013-01-24 02:43:00,21.0,21.0,-100.00,WNW,290,6.0,12.0,99,14.17,,,-99.99,,2013-01-24 07:43:00,
2013-01-24 02:53:00,21.0,-99.9,-100.00,NW,310,6.0,13.0,-999,0.00,,,-99.99,,2013-01-24 07:53:00,
2013-01-24 03:02:00,21.0,21.0,-100.00,NNW,330,7.0,16.0,99,0.00,,,-99.99,,2013-01-24 08:02:00,
2013-01-24 03:12:00,21.0,21.0,-100.00,NNW,330,7.0,14.0,98,0.00,,,-99.99,,2013-01-24 08:12:00,
2013-01-24 03:23:00,21.0,20.0,-100.00,NNW,330,9.0,15.0,94,0.00,,,-99.99,,2013-01-24 08:23:00,
2013-01-24 03:33:00,22.0,19.0,-100.00,NNW,340,11.0,16.0,87,0.00,,,-99.99,,2013-01-24 08:33:00,
2013-01-24 03:43:00,22.0,19.0,-100.00,NNW,340,11.0,16.0,87,0.00,,,-99.99,,2013-01-24 08:43:00,
2013-01-24 03:52:00,22.0,17.0,-100.00,NNW,340,8.0,15.0,80,0.00,,,-99.99,,2013-01-24 08:52:00,
2013-01-24 04:03:00,22.0,16.0,-100.00,NNW,330,10.0,17.0,77,0.00,,,-99.99,,2013-01-24 09:03:00,
2013-01-24 04:13:00,22.0,16.0,-100.00,NW,325,7.0,15.0,77,0.00,,,-99.99,,2013-01-24 09:13:00,
2013-01-24 04:23:00,22.0,16.0,-100.00,NNW,345,6.0,13.0,76,0.00,,,-99.99,,2013-01-24 09:23:00,
2013-01-24 04:33:00,22.0,15.0,-100.00,NNW,330,11.0,17.0,73,0.00,,,-99.99,,2013-01-24 09:33:00,
2013-01-24 04:43:00,22.0,13.0,-100.00,NNW,330,8.0,14.0,68,0.00,,,-99.99,,2013-01-24 09:43:00,
2013-01-24 04:52:00,22.0,12.0,-100.00,NNW,330,11.0,18.0,64,0.00,,,-99.99,,2013-01-24 09:52:00,
2013-01-24 05:03:00,22.0,12.0,-100.00,North,355,9.0,13.0,64,0.00,,,-99.99,,2013-01-24 10:03:00,
2013-01-24 05:12:00,22.0,11.0,-100.00,North,350,9.0,18.0,63,0.00,,,-99.99,,2013-01-24 10:12:00,
2013-01-24 05:23:00,21.0,11.0,-100.00,NNW,335,6.0,21.0,66,0.00,,,-99.99,,2013-01-24 10:23:00,
2013-01-24 05:33:00,21.0,11.0,-100.00,North,0,9.0,19.0,65,0.00,,,-99.99,,2013-01-24 10:33:00,
2013-01-24 05:43:00,21.0,12.0,-100.00,NW,325,14.0,22.0,67,0.00,,,-99.99,,2013-01-24 10:43:00,
2013-01-24 05:52:00,21.0,12.0,-100.00,NW,325,14.0,22.0,67,0.00,,,-99.99,,2013-01-24 10:52:00,
2013-01-24 06:03:00,21.0,12.0,-100.00,NNW,340,12.0,19.0,69,0.00,,,-99.99,,2013-01-24 11:03:00,
2013-01-24 06:12:00,20.0,13.0,-100.00,North,0,9.0,19.0,73,0.00,,,-99.99,,2013-01-24 11:12:00,
2013-01-24 06:23:00,20.0,13.0,-100.00,NW,325,7.0,19.0,72,0.00,,,-99.99,,2013-01-24 11:23:00,
2013-01-24 06:33:00,20.0,12.0,-100.00,North,0,6.0,13.0,70,0.00,,,-99.99,,2013-01-24 11:33:00,
2013-01-24 06:43:00,20.0,12.0,-100.00,North,0,6.0,13.0,70,0.00,,,-99.99,,2013-01-24 11:43:00,
2013-01-24 06:53:00,21.0,12.0,-100.00,NW,310,9.0,20.0,68,0.00,,,-99.99,,2013-01-24 11:53:00,
2013-01-24 07:03:00,21.0,12.0,-100.00,NW,325,6.0,18.0,67,0.00,,,-99.99,,2013-01-24 12:03:00,
2013-01-24 07:12:00,21.0,13.0,-100.00,North,0,9.0,14.0,69,0.00,,,-99.99,,2013-01-24 12:12:00,
2013-01-24 07:23:00,22.0,15.0,-100.00,NW,325,7.0,13.0,75,0.00,,,-99.99,,2013-01-24 12:23:00,
2013-01-24 07:33:00,22.0,16.0,-100.00,NNW,330,7.0,15.0,77,0.00,,,-99.99,,2013-01-24 12:33:00,
2013-01-24 07:43:00,22.0,16.0,-100.00,NNW,340,7.0,16.0,77,0.00,,,-99.99,,2013-01-24 12:43:00,
2013-01-24 07:53:00,22.0,17.0,-100.00,North,0,7.0,13.0,79,0.00,,,-99.99,,2013-01-24 12:53:00,
2013-01-24 08:03:00,22.0,17.0,-100.00,North,350,7.0,16.0,81,0.00,,,-99.99,,2013-01-24 13:03:00,
2013-01-24 08:13:00,22.0,17.0,-100.00,North,0,4.0,12.0,82,0.00,,,-99.99,,2013-01-24 13:13:00,
2013-01-24 08:23:00,22.0,17.0,-100.00,NNW,345,6.0,9.0,82,0.00,,,-99.99,,2013-01-24 13:23:00,
2013-01-24 08:33:00,22.0,17.0,-100.00,North,0,5.0,11.0,81,0.00,,,-99.99,,2013-01-24 13:33:00,
2013-01-24 08:43:00,22.0,17.0,-100.00,North,0,7.0,11.0,80,0.00,,,-99.99,,2013-01-24 13:43:00,
2013-01-24 08:53:00,23.0,17.0,-100.00,NNW,340,6.0,13.0,78,0.00,,,-99.99,,2013-01-24 13:53:00,
2013-01-24 09:03:00,22.0,18.0,-100.00,North,0,10.0,21.0,85,0.00,,,-99.99,,2013-01-24 14:03:00,
2013-01-24 09:12:00,22.0,17.0,-100.00,NNW,340,12.0,20.0,78,0.00,,,-99.99,,2013-01-24 14:12:00,
2013-01-24 09:23:00,23.0,15.0,-100.00,North,0,11.0,20.0,71,0.00,,,-99.99,,2013-01-24 14:23:00,
2013-01-24 09:33:00,23.0,13.0,-100.00,North,0,10.0,23.0,66,0.00,,,-99.99,,2013-01-24 14:33:00,
2013-01-24 09:43:00,23.0,12.0,-100.00,North,350,12.0,21.0,62,0.00,,,-99.99,,2013-01-24 14:43:00,
2013-01-24 09:53:00,23.0,11.0,-100.00,NNW,345,17.0,22.0,60,0.00,,,-99.99,,2013-01-24 14:53:00,
2013-01-24 10:04:00,23.0,10.0,-100.00,North,0,11.0,21.0,57,0.00,,,-99.99,,2013-01-24 15:04:00,
2013-01-24 10:12:00,23.0,7.0,-100.00,North,0,13.0,19.0,50,0.00,,,-99.99,,2013-01-24 15:12:00,
2013-01-24 10:23:00,23.0,6.0,-100.00,North,0,12.0,22.0,47,0.00,,,-99.99,,2013-01-24 15:23:00,
2013-01-24 10:33:00,23.0,5.0,-100.00,North,0,15.0,21.0,44,0.00,,,-99.99,,2013-01-24 15:33:00,
2013-01-24 10:43:00,23.0,5.0,-100.00,North,0,18.0,23.0,44,0.00,,,-99.99,,2013-01-24 15:43:00,
2013-01-24 10:53:00,23.0,8.0,-100.00,NNW,345,12.0,20.0,50,0.00,,,-99.99,,2013-01-24 15:53:00,
2013-01-24 11:00:00,23.0,7.0,-100.00,North,10,14.0,22.0,49,0.00,,,-99.99,,2013-01-24 16:00:00,
2013-01-24 11:04:00,23.0,5.0,-100.00,North,0,12.0,16.0,45,0.00,,,-99.99,,2013-01-24 16:04:00,
2013-01-24 11:12:00,23.0,6.0,-100.00,North,0,12.0,18.0,45,0.00,,,-99.99,,2013-01-24 16:12:00,
2013-01-24 11:23:00,23.0,7.0,-100.00,North,10,14.0,22.0,49,0.00,,,-99.99,,2013-01-24 16:23:00,
2013-01-24 11:33:00,23.0,7.0,-100.00,North,10,14.0,22.0,49,0.00,,,-99.99,,2013-01-24 16:33:00,
2013-01-24 11:42:00,23.0,7.0,-100.00,North,10,14.0,22.0,49,0.00,,,-99.99,,2013-01-24 16:42:00,
2013-01-24 12:53:00,23.0,9.0,-100.00,NNW,335,9.0,14.0,55,0.00,,,-99.99,,2013-01-24 17:53:00,
2013-01-24 13:03:00,23.0,10.0,-100.00,North,0,9.0,16.0,56,0.00,,,-99.99,,2013-01-24 18:03:00,
2013-01-24 13:12:00,23.0,10.0,-100.00,North,0,7.0,17.0,57,0.00,,,-99.99,,2013-01-24 18:12:00,
2013-01-24 13:23:00,22.0,9.0,-100.00,North,0,10.0,16.0,56,0.00,,,-99.99,,2013-01-24 18:23:00,
2013-01-24 13:33:00,22.0,9.0,-100.00,NW,325,8.0,13.0,57,0.00,,,-99.99,,2013-01-24 18:33:00,
2013-01-24 13:42:00,22.0,10.0,-100.00,North,0,10.0,16.0,60,0.00,,,-99.99,,2013-01-24 18:42:00,
2013-01-24 13:53:00,22.0,10.0,-100.00,NNW,345,9.0,14.0,59,0.00,,,-99.99,,2013-01-24 18:53:00,
2013-01-24 14:02:00,22.0,11.0,-100.00,North,0,10.0,14.0,61,0.00,,,-99.99,,2013-01-24 19:02:00,
2013-01-24 14:12:00,22.0,11.0,-100.00,North,350,8.0,12.0,61,0.00,,,-99.99,,2013-01-24 19:12:00,
2013-01-24 14:22:00,22.0,10.0,-100.00,NNW,335,6.0,12.0,59,0.00,,,-99.99,,2013-01-24 19:22:00,
2013-01-24 14:33:00,22.0,11.0,-100.00,North,0,6.0,13.0,61,0.00,,,-99.99,,2013-01-24 19:33:00,
2013-01-24 14:42:00,23.0,11.0,-100.00,North,0,4.0,11.0,59,0.00,,,-99.99,,2013-01-24 19:42:00,
2013-01-24 14:52:00,23.0,11.0,-100.00,North,0,4.0,11.0,59,0.00,,,-99.99,,2013-01-24 19:52:00,
2013-01-24 15:02:00,22.0,11.0,-100.00,North,0,7.0,10.0,60,0.00,,,-99.99,,2013-01-24 20:02:00,
2013-01-24 15:11:00,23.0,11.0,-100.00,NNW,345,4.0,9.0,60,0.00,,,-99.99,,2013-01-24 20:11:00,
2013-01-24 15:22:00,23.0,11.0,-100.00,North,0,4.0,8.0,60,0.00,,,-99.99,,2013-01-24 20:22:00,
2013-01-24 15:33:00,22.0,10.0,-100.00,NW,315,5.0,11.0,58,0.00,,,-99.99,,2013-01-24 20:33:00,
2013-01-24 15:42:00,22.0,10.0,-100.00,NW,315,4.0,8.0,58,0.00,,,-99.99,,2013-01-24 20:42:00,
2013-01-24 15:52:00,23.0,10.0,-100.00,NW,310,3.0,7.0,57,0.00,,,-99.99,,2013-01-24 20:52:00,
2013-01-24 16:03:00,22.0,11.0,-100.00,North,0,6.0,9.0,60,0.00,,,-99.99,,2013-01-24 21:03:00,
2013-01-24 16:12:00,23.0,10.0,-100.00,West,275,5.0,7.0,58,0.00,,,-99.99,,2013-01-24 21:12:00,
2013-01-24 16:22:00,23.0,9.0,-100.00,NW,305,3.0,6.0,56,0.00,,,-99.99,,2013-01-24 21:22:00,
2013-01-24 16:33:00,23.0,9.0,-100.00,WNW,295,3.0,7.0,55,0.00,,,-99.99,,2013-01-24 21:33:00,
2013-01-24 16:43:00,23.0,10.0,-100.00,North,0,5.0,9.0,58,0.00,,,-99.99,,2013-01-24 21:43:00,
2013-01-24 16:52:00,22.0,9.0,-100.00,NNW,345,4.0,7.0,56,0.00,,,-99.99,,2013-01-24 21:52:00,
2013-01-24 17:03:00,22.0,10.0,-100.00,WNW,285,2.0,7.0,58,0.00,,,-99.99,,2013-01-24 22:03:00,
2013-01-24 17:12:00,22.0,9.0,-100.00,North,0,1.0,6.0,58,0.00,,,-99.99,,2013-01-24 22:12:00,
2013-01-24 17:22:00,22.0,9.0,-100.00,WNW,285,1.0,7.0,58,0.00,,,-99.99,,2013-01-24 22:22:00,
2013-01-24 17:33:00,21.0,9.0,-100.00,West,260,1.0,6.0,57,0.00,,,-99.99,,2013-01-24 22:33:00,
2013-01-24 17:42:00,21.0,9.0,-100.00,WNW,290,2.0,4.0,59,0.00,,,-99.99,,2013-01-24 22:42:00,
2013-01-24 17:52:00,21.0,9.0,-100.00,WNW,290,1.0,5.0,58,0.00,,,-99.99,,2013-01-24 22:52:00,
2013-01-24 18:03:00,21.0,8.0,-100.00,WNW,300,1.0,5.0,57,0.00,,,-99.99,,2013-01-24 23:03:00,
2013-01-24 18:12:00,21.0,8.0,-100.00,NW,305,1.0,4.0,57,0.00,,,-99.99,,2013-01-24 23:12:00,
2013-01-24 18:22:00,21.0,8.0,-100.00,NW,325,1.0,6.0,57,0.00,,,-99.99,,2013-01-24 23:22:00,
2013-01-24 18:32:00,21.0,8.0,-100.00,North,350,2.0,5.0,57,0.00,,,-99.99,,2013-01-24 23:32:00,
2013-01-24 18:42:00,21.0,9.0,-100.00,NNW,335,1.0,3.0,58,0.00,,,-99.99,,2013-01-24 23:42:00,
2013-01-24 18:52:00,21.0,8.0,-100.00,West,280,0.0,4.0,57,0.00,,,-99.99,,2013-01-24 23:52:00,
2013-01-24 19:02:00,21.0,8.0,-100.00,NW,325,1.0,3.0,57,0.00,,,-99.99,,2013-01-25 00:02:00,
2013-01-24 19:12:00,21.0,8.0,-100.00,WSW,250,1.0,3.0,58,0.00,,,-99.99,,2013-01-25 00:12:00,
2013-01-24 19:22:00,21.0,8.0,-100.00,NNE,20,1.0,4.0,56,-99.99,,,-99.99,,2013-01-25 00:22:00,
2013-01-24 19:32:00,21.0,8.0,-100.00,North,5,1.0,5.0,56,-99.99,,,-99.99,,2013-01-25 00:32:00,
2013-01-24 19:42:00,19.0,8.0,-100.00,North,0,0.0,2.0,59,-99.99,,,-99.99,,2013-01-25 00:42:00,
2013-01-24 19:52:00,18.0,7.0,-100.00,SE,135,1.0,1.0,62,-99.99,,,-99.99,,2013-01-25 00:52:00,
2013-01-24 20:02:00,17.0,8.0,-100.00,SSE,160,2.0,3.0,65,0.00,,,-99.99,,2013-01-25 01:02:00,
2013-01-24 20:12:00,15.0,7.0,-100.00,ESE,115,1.0,2.0,68,0.00,,,-99.99,,2013-01-25 01:12:00,
2013-01-24 20:22:00,15.0,8.0,-100.00,SSE,150,1.0,2.0,71,0.00,,,-99.99,,2013-01-25 01:22:00,
2013-01-24 20:32:00,15.0,8.0,-100.00,SE,140,1.0,2.0,72,0.00,,,-99.99,,2013-01-25 01:32:00,
2013-01-24 20:42:00,14.0,8.0,-100.00,SSE,160,2.0,3.0,73,0.00,,,-99.99,,2013-01-25 01:42:00,
2013-01-24 20:52:00,13.0,7.0,-100.00,SE,140,1.0,2.0,74,0.00,,,-99.99,,2013-01-25 01:52:00,
2013-01-24 21:02:00,13.0,7.0,-100.00,SE,145,2.0,2.0,75,0.00,,,-99.99,,2013-01-25 02:02:00,
2013-01-24 21:11:00,13.0,7.0,-100.00,SE,135,1.0,2.0,76,0.00,,,-99.99,,2013-01-25 02:11:00,
2013-01-24 21:22:00,13.0,7.0,-100.00,SE,145,1.0,2.0,77,0.00,,,-99.99,,2013-01-25 02:22:00,
2013-01-24 21:32:00,13.0,7.0,-100.00,East,90,1.0,2.0,77,0.00,,,-99.99,,2013-01-25 02:32:00,
2013-01-24 21:42:00,13.0,7.0,-100.00,SE,130,1.0,2.0,79,0.00,,,-99.99,,2013-01-25 02:42:00,
2013-01-24 21:52:00,13.0,8.0,-100.00,SE,135,2.0,3.0,79,0.00,,,-99.99,,2013-01-25 02:52:00,
2013-01-24 22:02:00,13.0,8.0,-100.00,SE,135,2.0,3.0,79,0.00,,,-99.99,,2013-01-25 03:02:00,
2013-01-24 22:12:00,13.0,8.0,-100.00,SE,140,2.0,2.0,79,0.00,,,-99.99,,2013-01-25 03:12:00,
2013-01-24 22:22:00,13.0,8.0,-100.00,SE,145,1.0,2.0,80,0.00,,,-99.99,,2013-01-25 03:22:00,
2013-01-24 22:33:00,13.0,8.0,-100.00,SE,145,2.0,2.0,80,0.00,,,-99.99,,2013-01-25 03:33:00,
2013-01-24 22:42:00,14.0,9.0,-100.00,SSE,150,2.0,3.0,80,0.00,,,-99.99,,2013-01-25 03:42:00,
2013-01-24 22:52:00,14.0,9.0,-100.00,SSE,150,2.0,4.0,80,0.00,,,-99.99,,2013-01-25 03:52:00,
2013-01-24 23:02:00,15.0,10.0,-100.00,SSE,150,3.0,6.0,80,0.00,,,-99.99,,2013-01-25 04:02:00,
2013-01-24 23:12:00,15.0,10.0,-100.00,SSE,150,2.0,4.0,79,0.00,,,-99.99,,2013-01-25 04:12:00,
2013-01-24 23:22:00,15.0,10.0,-100.00,SE,145,2.0,3.0,79,0.00,,,-99.99,,2013-01-25 04:22:00,
2013-01-24 23:32:00,15.0,10.0,-100.00,SE,135,2.0,4.0,79,0.00,,,-99.99,,2013-01-25 04:32:00,
2013-01-24 23:42:00,15.0,10.0,-100.00,SE,135,2.0,3.0,78,0.00,,,-99.99,,2013-01-25 04:42:00,
2013-01-24 23:51:00,15.0,9.0,-100.00,SE,130,2.0,3.0,78,0.00,,,-99.99,,2013-01-25 04:51:00,